AEROCUBE 12A

Last updated on Thu May 25 2023 00:02:07 GMT+0000 (Coordinated Universal Time)

1 43556U 18046C 23143.64315685 .05242445 12165-4 10735-2 0 9996 2 43556 51.6078 287.9724 0013765 296.7316 63.2297 16.30091401272215

Satellite not in orbit